Change the Weather History Date:

Thursday, December 13, 2012

  Actual Average Record
Temperature  
Mean Temperature 42 °F 34 °F  
Max Temperature 60 °F 49 °F 67 °F (1995)
Min Temperature 24 °F 21 °F -10 °F (1923)
Degree Days  
Heating Degree Days 23 31  
Month to date heating degree days 290 378  
Since 1 July heating degree days 1054 1314  
Cooling Degree Days 0 0  
Month to date cooling degree days 0 0  
Year to date cooling degree days 1442 1208  
Moisture  
Dew Point 14 °F    
Average Humidity 49    
Maximum Humidity 82    
Minimum Humidity 16    
Precipitation  
Precipitation 0.08 in 0.02 in 0.77 in (1967)
Month to date precipitation 0.08 0.24  
Year to date precipitation 5.22 6.69  
Sea Level Pressure  
Sea Level Pressure 29.91 in    
Wind  
Wind Speed 10 mph (SE)    
Max Wind Speed 25 mph    
Max Gust Speed 32 mph    
Visibility 10 miles    
Events Rain    
T = Trace of Precipitation, MM = Missing Value Source: NWS Daily Summary

Daily Weather History Graph

Daily Weather History Graph

Search for Another Location

Airport or City:

Trip Planner

Search our weather history database for the weather conditions in past years. The results will help you decide how hot, cold, wet, or windy it might be!

Date:

Astronomy

Dec. 13, 2012 Rise Set
Actual Time 7:22 AM MST 5:12 PM MST
Civil Twilight 6:54 AM MST 5:40 PM MST
Nautical Twilight 6:22 AM MST 6:11 PM MST
Astronomical Twilight 5:51 AM MST 6:42 PM MST
Moon 7:35 AM MST (12/13) 5:57 PM MST (12/13)
Length of Visible Light 10h 45m
Length of Day
9h 49m
New Moon, 0% of the Moon is Illuminated
Dec 13
New Moon
Dec 19
First Quarter
Dec 28
Full
Jan 4
Last Quarter
Jan 11
New

Hourly Weather History & Observations

Time (MST) Temp. Windchill Dew Point Humidity Pressure Visibility Wind Dir Wind Speed Gust Speed Precip Events Conditions
12:56 AM 30.0 °F 23.2 °F 6.1 °F 36% 29.97 in 10.0 mi East 6.9 mph - N/A   Clear
1:56 AM 28.4 °F 22.2 °F 6.8 °F 40% 30.00 in 10.0 mi ESE 5.8 mph - N/A   Clear
2:56 AM 26.1 °F 19.4 °F 5.0 °F 41% 29.98 in 10.0 mi East 5.8 mph - N/A   Clear
3:56 AM 25.0 °F 15.5 °F 3.9 °F 41% 29.97 in 10.0 mi ESE 9.2 mph - N/A   Clear
4:56 AM 26.6 °F 19.1 °F 5.0 °F 40% 29.99 in 10.0 mi ESE 6.9 mph - N/A   Clear
5:56 AM 27.0 °F 17.3 °F 5.0 °F 39% 29.99 in 10.0 mi ESE 10.4 mph - N/A   Clear
6:56 AM 27.0 °F 18.7 °F 5.0 °F 39% 30.02 in 10.0 mi SE 8.1 mph - N/A   Clear
7:56 AM 28.0 °F - 6.1 °F 39% 30.05 in 10.0 mi Calm Calm - N/A   Clear
8:56 AM 36.0 °F 28.0 °F 9.0 °F 33% 30.03 in 10.0 mi ESE 11.5 mph - N/A   Clear
9:56 AM 43.0 °F 36.0 °F 12.0 °F 28% 29.99 in 10.0 mi ESE 13.8 mph - N/A   Clear
10:56 AM 48.0 °F - 14.0 °F 26% 29.95 in 10.0 mi East 10.4 mph - N/A   Clear
11:56 AM 57.9 °F - 16.0 °F 19% 29.89 in 10.0 mi SSE 15.0 mph 23.0 mph N/A   Clear
12:03 PM 57.2 °F - 15.8 °F 20% 29.93 in 10.0 mi South 17.3 mph 28.8 mph N/A   Clear
12:56 PM 59.0 °F - 14.0 °F 17% 29.85 in 10.0 mi South 23.0 mph 28.8 mph N/A   Clear
1:56 PM 59.0 °F - 14.0 °F 17% 29.85 in 10.0 mi SW 17.3 mph 26.5 mph N/A   Clear
2:56 PM 59.0 °F - 15.1 °F 18% 29.84 in 10.0 mi SSW 16.1 mph 25.3 mph N/A   Clear
5:56 PM 44.1 °F - 18.0 °F 35% 29.88 in 10.0 mi Calm Calm - N/A   Clear
6:56 PM 37.0 °F 32.4 °F 15.1 °F 41% 29.91 in 10.0 mi South 5.8 mph - N/A   Clear
7:56 PM 37.0 °F 33.3 °F 17.1 °F 44% 29.87 in 10.0 mi South 4.6 mph - N/A   Clear
8:56 PM 37.0 °F 31.6 °F 18.0 °F 46% 29.82 in 10.0 mi ESE 6.9 mph - N/A   Clear
9:56 PM 39.9 °F 36.7 °F 19.9 °F 45% 29.78 in 10.0 mi South 4.6 mph - 0.00 in Rain Light Rain
10:56 PM 43.0 °F 36.8 °F 37.9 °F 82% 29.77 in 10.0 mi South 11.5 mph - 0.03 in Rain Light Rain
11:56 PM 43.0 °F 36.8 °F 37.9 °F 82% 29.69 in 10.0 mi SSE 11.5 mph - 0.04 in Rain Light Rain